Change the Weather History Date:

Saturday, May 25, 2013

  Actual Average Record
Temperature  
Mean Temperature 49 °F -  
Max Temperature 52 °F 69 °F 87 °F (2007)
Min Temperature 46 °F 52 °F 32 °F (1997)
Degree Days  
Heating Degree Days 16    
Moisture  
Dew Point 46 °F    
Average Humidity 88    
Maximum Humidity 100    
Minimum Humidity 69    
Precipitation  
Precipitation 0.63 in - - ()
Sea Level Pressure  
Sea Level Pressure 29.76 in    
Wind  
Wind Speed 7 mph ()    
Max Wind Speed 14 mph    
Max Gust Speed 25 mph    
Visibility 5.8 miles    
Events Rain    
Averages and records for this station are not official NWS values.
T = Trace of Precipitation, MM = Missing Value Source: Averaged Metar Reports

Daily Weather History Graph

Daily Weather History Graph

Search for Another Location

Airport or City:

Trip Planner

Search our weather history database for the weather conditions in past years. The results will help you decide how hot, cold, wet, or windy it might be!

Date:

Astronomy

May. 25, 2013 Rise Set
Actual Time 4:56 AM CEST 9:11 PM CEST
Civil Twilight 4:10 AM CEST 9:57 PM CEST
Nautical Twilight 3:03 AM CEST 11:05 PM CEST
Astronomical Twilight 1:36 AM CEST 12:31 AM CEST
Moon 9:38 PM CEST (5/25) 5:11 AM CEST (5/25)
Length of Visible Light 17h 46m
Length of Day
16h 14m
Full, 100% of the Moon is Illuminated
May 25
Full
May 31
Last Quarter
Jun 8
New
Jun 16
First Quarter
Jun 23
Full

Hourly Weather History & Observations

Time (CEST) Temp. Windchill Dew Point Humidity Pressure Visibility Wind Dir Wind Speed Gust Speed Precip Events Conditions
12:00 AM 51 °F - 44 °F 71% 29.86 in 25 mi WNW 4.5 mph - -   Scattered Clouds
12:20 AM 50.0 °F - 44.6 °F 82% 29.83 in - WNW 4.6 mph - N/A   Clear
12:50 AM 50.0 °F - 44.6 °F 82% 29.83 in - WNW 4.6 mph - N/A   Clear
1:00 AM 50 °F - 45 °F 76% 29.85 in 25 mi WNW 4.5 mph - -   Mostly Cloudy
1:20 AM 48.2 °F - 44.6 °F 87% 29.83 in - West 4.6 mph - N/A   Clear
1:50 AM 48.2 °F - 44.6 °F 87% 29.83 in - West 4.6 mph - N/A   Clear
2:00 AM 48 °F - 44 °F 82% 29.84 in 25 mi West 4.5 mph - -   Partly Cloudy
2:20 AM 48.2 °F - 44.6 °F 87% 29.83 in - West 3.5 mph - N/A   Clear
2:50 AM 48.2 °F - 44.6 °F 87% 29.83 in - NW 4.6 mph - N/A   Clear
3:00 AM 49 °F - 45 °F 79% 29.83 in 25 mi NW 4.5 mph - -   Mostly Cloudy
3:20 AM 48.2 °F - 44.6 °F 87% 29.83 in - NW 5.8 mph - N/A   Clear
3:50 AM 48.2 °F - 42.8 °F 82% 29.80 in - NW 5.8 mph - N/A   Clear
4:00 AM 49 °F - 43 °F 71% 29.82 in 25 mi NW 4.5 mph - -   Mostly Cloudy
4:20 AM 48.2 °F - 41.0 °F 76% 29.80 in - WNW 5.8 mph - N/A   Clear
4:50 AM 48.2 °F - 41.0 °F 76% 29.80 in - WNW 5.8 mph - N/A   Clear
5:00 AM 48 °F - 41 °F 69% 29.81 in 16 mi WNW 4.5 mph - -   Mostly Cloudy
5:20 AM 48.2 °F - 41.0 °F 76% 29.80 in - WNW 5.8 mph - N/A   Clear
5:50 AM 48.2 °F - 42.8 °F 82% 29.80 in - WNW 6.9 mph - N/A   Clear
6:00 AM 48 °F - 43 °F 76% 29.80 in 16 mi WNW 6.7 mph - -   Mostly Cloudy
6:20 AM 48.2 °F - 44.6 °F 87% 29.77 in - WNW 5.8 mph - N/A   Clear
6:50 AM 48.2 °F - 44.6 °F 87% 29.77 in - WNW 6.9 mph - N/A   Clear
7:00 AM 48 °F - 44 °F 81% 29.79 in 12 mi WNW 6.7 mph - -   Partly Cloudy
7:20 AM 48.2 °F - 44.6 °F 87% 29.77 in - WNW 6.9 mph - N/A   Clear
7:50 AM 50.0 °F - 44.6 °F 82% 29.77 in - West 8.1 mph - N/A   Clear
8:00 AM 49 °F - 44 °F 77% 29.78 in 11 mi West 6.7 mph - -   Mostly Cloudy
8:20 AM 50.0 °F - 44.6 °F 82% 29.77 in 6.2 mi West 5.8 mph - N/A   Mostly Cloudy
8:50 AM 51.8 °F - 44.6 °F 76% 29.77 in 6.2 mi WNW 6.9 mph - N/A Rain Light Rain
9:00 AM 51 °F - 45 °F 73% 29.78 in 11 mi WNW 6.7 mph - - Rain Light Rain
9:20 AM 51.8 °F - 46.4 °F 82% 29.77 in 6.2 mi WNW 8.1 mph - N/A   Mostly Cloudy
9:50 AM 51.8 °F - 46.4 °F 82% 29.77 in 6.2 mi WNW 8.1 mph - N/A Rain Light Rain
10:00 AM 52 °F - 47 °F 77% 29.78 in 9 mi WNW 6.7 mph - - Rain Light Rain
10:20 AM 51.8 °F - 46.4 °F 82% 29.77 in 6.2 mi WNW 10.4 mph - N/A Rain Light Rain
10:50 AM 51.8 °F - 48.2 °F 88% 29.77 in 6.2 mi WNW 9.2 mph - N/A Rain Light Rain
11:00 AM 51 °F - 48 °F 86% 29.78 in 7 mi WNW 8.9 mph - - Rain Light Rain
11:20 AM 50.0 °F - 48.2 °F 94% 29.77 in 5.6 mi WNW 10.4 mph - N/A Rain Rain
11:50 AM 50.0 °F - 48.2 °F 94% 29.77 in 6.2 mi WNW 12.7 mph - N/A Rain Rain
12:00 PM 51 °F - 47 °F 83% 29.77 in 6 mi WNW 11.2 mph - - Rain Rain
12:20 PM 50.0 °F - 48.2 °F 94% 29.77 in 5.6 mi West 13.8 mph - N/A Rain Rain
12:50 PM 50.0 °F - 48.2 °F 94% 29.74 in 5.6 mi WNW 11.5 mph - N/A Rain Rain
1:20 PM 50.0 °F - 48.2 °F 94% 29.74 in 5.6 mi West 12.7 mph - N/A Rain Rain
1:50 PM 50.0 °F - 48.2 °F 94% 29.74 in 5.6 mi West 10.4 mph - N/A Rain Rain
2:00 PM 50 °F - 48 °F 90% 29.75 in 6 mi West 11.2 mph - - Rain Rain
2:20 PM 50.0 °F - 46.4 °F 87% 29.74 in 5.6 mi WNW 13.8 mph - N/A Rain Rain
2:50 PM 50.0 °F - 48.2 °F 94% 29.74 in 5.0 mi WNW 9.2 mph - N/A Rain Rain
3:00 PM 49 °F - 47 °F 92% 29.76 in 5 mi WNW 8.9 mph - - Rain Rain
3:20 PM 50.0 °F - 48.2 °F 94% 29.74 in 5.0 mi WNW 12.7 mph - N/A Rain Rain
3:50 PM 48.2 °F - 46.4 °F 93% 29.74 in 4.3 mi West 12.7 mph - N/A Rain Rain
4:00 PM 49 °F - 47 °F 90% 29.75 in 4 mi West 13.4 mph - - Rain Rain
4:20 PM 48.2 °F - 48.2 °F 100% 29.74 in 5.0 mi West 12.7 mph - N/A Rain Rain
4:50 PM 48.2 °F - 48.2 °F 100% 29.74 in 4.3 mi West 13.8 mph 25.3 mph N/A Rain Rain
5:00 PM 49 °F - 47 °F 91% 29.74 in 4 mi West 13.4 mph - - Rain Rain
5:20 PM 48.2 °F - 46.4 °F 93% 29.71 in 4.3 mi West 13.8 mph - N/A Rain Rain
5:50 PM 48.2 °F - 46.4 °F 93% 29.71 in 3.7 mi West 11.5 mph - N/A Rain Rain
6:00 PM 49 °F - 47 °F 90% 29.73 in 4 mi West 11.2 mph - - Rain Rain
6:20 PM 48.2 °F - 46.4 °F 93% 29.71 in 3.7 mi West 12.7 mph - N/A Rain Rain
6:50 PM 48.2 °F - 46.4 °F 93% 29.71 in 3.7 mi WNW 9.2 mph - N/A Rain Rain
7:00 PM 47 °F - 46 °F 96% 29.73 in 4 mi WNW 8.9 mph - - Rain Rain
7:20 PM 46.4 °F 40.7 °F 46.4 °F 100% 29.71 in 3.7 mi WNW 12.7 mph - N/A Rain Rain
7:50 PM 46.4 °F 40.7 °F 46.4 °F 100% 29.71 in 4.3 mi West 12.7 mph - N/A Rain Light Rain
8:00 PM 47 °F - 46 °F 93% 29.72 in 4 mi West 13.4 mph - - Rain Light Rain
8:20 PM 46.4 °F 41.1 °F 46.4 °F 100% 29.71 in 3.7 mi WNW 11.5 mph - N/A Rain Rain
8:50 PM 46.4 °F 41.1 °F 46.4 °F 100% 29.71 in 4.3 mi West 11.5 mph - N/A Rain Rain
9:00 PM 47 °F - 46 °F 94% 29.71 in 4 mi West 11.2 mph - - Rain Rain
9:20 PM 46.4 °F 42.4 °F 46.4 °F 100% 29.68 in 4.3 mi West 8.1 mph - N/A Rain Light Rain
9:50 PM 46.4 °F 41.5 °F 46.4 °F 100% 29.68 in 4.3 mi West 10.4 mph - N/A Rain Light Rain
10:00 PM 47 °F - 46 °F 96% 29.70 in 4 mi West 8.9 mph - - Rain Light Rain
10:20 PM 48.2 °F - 48.2 °F 100% 29.68 in 4.3 mi WNW 9.2 mph - N/A Rain Light Rain
10:50 PM 48.2 °F - 48.2 °F 100% 29.68 in 4.3 mi WNW 9.2 mph - N/A Rain Light Rain
11:00 PM 48 °F - 47 °F 95% 29.70 in 4 mi WNW 8.9 mph - - Rain Light Rain
11:20 PM 48.2 °F - 48.2 °F 100% 29.68 in 4.3 mi WNW 6.9 mph - N/A Rain Rain
11:50 PM 48.2 °F - 48.2 °F 100% 29.68 in 4.3 mi WNW 8.1 mph - N/A Rain Rain